Sharm El Sheikh, Egypt

9:49 PM EET on November 23, 2017 (GMT +0200)
Sharm El Sheikh

Weather History for HESH - September, 2013

Change the Weather History Date:

Thursday, September 19, 2013

  Actual Average Record
Temperature  
Mean Temperature 93 °F -  
Max Temperature 102 °F 91 °F - ()
Min Temperature 84 °F 75 °F - ()
Cooling Degree Days 28    
Growing Degree Days 43 (Base 50)    
Moisture  
Dew Point 55 °F    
Average Humidity 31    
Maximum Humidity 45    
Minimum Humidity 16    
Precipitation  
Precipitation 0.00 in 0.00 in - ()
Sea Level Pressure  
Sea Level Pressure 29.77 in    
Wind  
Wind Speed 9 mph ()    
Max Wind Speed 16 mph    
Max Gust Speed -    
T = Trace of Precipitation, MM = Missing Value Source: Averaged Metar Reports

Daily Weather History Graph

Daily Weather History Graph

Search for Another Location

Airport or City:

Trip Planner

Search our weather history database for the weather conditions in past years. The results will help you decide how hot, cold, wet, or windy it might be!

Date:

Astronomy

Sep. 19, 2013 Rise Set
Actual Time 5:29 AM EET 5:42 PM EET
Civil Twilight 5:06 AM EET 6:06 PM EET
Nautical Twilight 4:38 AM EET 6:33 PM EET
Astronomical Twilight 4:11 AM EET 7:00 PM EET
Moon 5:33 PM EET (9/19) 5:13 AM EET (9/19)
Length of Visible Light 12h 59m
Length of Day
12h 13m
Full, 100% of the Moon is Illuminated
Sep 19
Full
Sep 19
Full
Sep 27
Last Quarter
Oct 5
New
Oct 12
First Quarter

Hourly Weather History & Observations

Time (EET) Temp. Heat Index Dew Point Humidity Pressure Visibility Wind Dir Wind Speed Gust Speed Precip Events Conditions
12:00 AM 86.0 °F 85.4 °F 59.0 °F 40% 29.77 in - North 11.5 mph - N/A   Clear
1:00 AM 86.0 °F 85.4 °F 59.0 °F 40% 29.77 in - North 13.8 mph - N/A   Clear
2:00 AM 84.2 °F 84.4 °F 60.8 °F 45% 29.77 in - North 12.7 mph - N/A   Clear
3:00 AM 84.2 °F 84.4 °F 60.8 °F 45% 29.77 in - North 13.8 mph - N/A   Clear
4:00 AM 84.2 °F 84.4 °F 60.8 °F 45% 29.77 in - North 12.7 mph - N/A   Clear
5:00 AM 84.2 °F 83.8 °F 59.0 °F 42% 29.77 in - North 15.0 mph - N/A   Clear
6:00 AM 84.2 °F 83.0 °F 55.4 °F 37% 29.77 in - North 16.1 mph - N/A   Clear
7:00 AM 87.8 °F 85.7 °F 53.6 °F 31% 29.80 in - North 13.8 mph - N/A   Clear
8:00 AM 89.6 °F 90.1 °F 62.6 °F 40% 29.83 in - NE 6.9 mph - N/A   Clear
9:00 AM 93.2 °F 91.3 °F 55.4 °F 28% 29.83 in - NNE 8.1 mph - N/A   Clear
10:00 AM 96.8 °F - 50.0 °F 20% 29.83 in - North 9.2 mph - N/A   Clear
11:00 AM 102.2 °F - 48.2 °F 16% 29.80 in - NE 5.8 mph - N/A   Clear
12:00 PM 98.6 °F 98.5 °F 59.0 °F 27% 29.80 in - SSE 9.2 mph - N/A   Clear
1:00 PM 102.2 °F - 51.8 °F 18% 29.77 in - South 8.1 mph - N/A   Clear
2:00 PM 102.2 °F - 50.0 °F 17% 29.77 in - South 9.2 mph - N/A   Clear
3:00 PM 98.6 °F 96.4 °F 53.6 °F 22% 29.74 in - South 11.5 mph - N/A   Clear
4:00 PM 100.4 °F - 51.8 °F 20% 29.71 in - South 9.2 mph - N/A   Clear
5:00 PM 96.8 °F - 46.4 °F 18% 29.71 in - SSW 9.2 mph - N/A   Clear
6:00 PM 91.4 °F - 50.0 °F 24% 29.74 in - SSW 4.6 mph - N/A   Clear
7:00 PM 89.6 °F 87.7 °F 55.4 °F 31% 29.74 in - Variable 2.3 mph - N/A   Clear
8:00 PM 89.6 °F 87.3 °F 53.6 °F 29% 29.74 in - Calm Calm - N/A   Clear
9:00 PM 87.8 °F 86.5 °F 57.2 °F 35% 29.77 in - SSW 3.5 mph - N/A   Clear
10:00 PM 87.8 °F - 42.8 °F 21% 29.74 in - West 3.5 mph - N/A   Clear
11:00 PM 84.2 °F 84.4 °F 60.8 °F 45% 29.74 in - North 3.5 mph - N/A   Clear